Starlink 11263

operational
NORAD ID: 60725 Int'l Des: 2024-152 Owner: SPXS Country: US Constellation: starlink
LEOCIRCULAR

Starlink 11263について

説明を読み込み中...

リアルタイム位置

3D地球を読み込み中...

次回通過

高度履歴

Altitude vs Time

uPlot chart will show altitude changes over time

軌道要素

1 60725U 24152F 25306.47218487 .00006274 00000-0 56605-4 0 9996
2 60725 53.1590 23.4285 0001375 86.5423 273.5752 15.69712367 68858
Epoch: Nov 2, 2025 • Age: 11 hours

現在のステータス

高度 363.9 km
速度 7.70 km/s
衛星直下点 46.63°N, 128.88°E
打ち上げ日 Aug 28, 2024
運用期間 1.1 years
タイプ internet

技術仕様

分類 Payload
質量 960.00 kg
乾燥質量 910.00 kg
総質量 960.00 kg
長さ 0.30 m
直径 4.10 m
スパン 29.00 m
形状 Box + pan
製造者 SPXS
バスタイプ Starlink V2MD
フェーズステータス In Orbit
所有者/国 SPXS/US

大規模コンステレーション

Loading constellations...